Year,Month,Day,Hour,Minute,Value (Times are PST for temperature in C)
2009,09,23,00,00,15.70
2009,09,23,00,01,15.60
2009,09,23,00,02,15.60
2009,09,23,00,03,15.60
2009,09,23,00,04,15.60
2009,09,23,00,05,15.60
2009,09,23,00,06,15.60
2009,09,23,00,07,15.50
2009,09,23,00,08,15.50
2009,09,23,00,09,15.50
2009,09,23,00,10,15.40
2009,09,23,00,11,15.40
2009,09,23,00,12,15.40
2009,09,23,00,13,15.40
2009,09,23,00,14,15.40
2009,09,23,00,15,15.40
2009,09,23,00,16,15.40
2009,09,23,00,17,15.40
2009,09,23,00,18,15.40
2009,09,23,00,19,15.40
2009,09,23,00,20,15.40
2009,09,23,00,21,15.40
2009,09,23,00,22,15.50
2009,09,23,00,23,15.50
2009,09,23,00,24,15.50
2009,09,23,00,25,15.60
2009,09,23,00,26,15.60
2009,09,23,00,27,15.60
2009,09,23,00,28,15.60
2009,09,23,00,29,15.60
2009,09,23,00,30,15.60
2009,09,23,00,31,15.60
2009,09,23,00,32,15.60
2009,09,23,00,33,15.60
2009,09,23,00,34,15.60
2009,09,23,00,35,15.50
2009,09,23,00,36,15.40
2009,09,23,00,37,15.40
2009,09,23,00,38,15.40
2009,09,23,00,39,15.30
2009,09,23,00,40,15.30
2009,09,23,00,41,15.30
2009,09,23,00,42,15.20
2009,09,23,00,43,15.20
2009,09,23,00,44,15.20
2009,09,23,00,45,15.10
2009,09,23,00,46,15.00
2009,09,23,00,47,15.00
2009,09,23,00,48,15.00
2009,09,23,00,49,15.00
2009,09,23,00,50,15.00
2009,09,23,00,51,15.00
2009,09,23,00,52,15.00
2009,09,23,00,53,15.00
2009,09,23,00,54,14.90
2009,09,23,00,55,14.80
2009,09,23,00,56,14.80
2009,09,23,00,57,14.80
2009,09,23,00,58,14.80
2009,09,23,00,59,14.80
2009,09,23,01,00,14.70
2009,09,23,01,01,14.70
2009,09,23,01,02,14.70
2009,09,23,01,03,14.70
2009,09,23,01,04,14.60
2009,09,23,01,05,14.60
2009,09,23,01,06,14.60
2009,09,23,01,07,14.50
2009,09,23,01,08,14.50
2009,09,23,01,09,14.40
2009,09,23,01,10,14.40
2009,09,23,01,11,14.40
2009,09,23,01,12,14.30
2009,09,23,01,13,14.20
2009,09,23,01,14,14.20
2009,09,23,01,15,14.10
2009,09,23,01,16,14.10
2009,09,23,01,17,14.00
2009,09,23,01,18,14.00
2009,09,23,01,19,13.90
2009,09,23,01,20,13.90
2009,09,23,01,21,13.90
2009,09,23,01,22,13.90
2009,09,23,01,23,13.90
2009,09,23,01,24,13.90
2009,09,23,01,25,13.90
2009,09,23,01,26,13.90
2009,09,23,01,27,13.90
2009,09,23,01,28,13.90
2009,09,23,01,29,13.90
2009,09,23,01,30,14.00
2009,09,23,01,31,14.00
2009,09,23,01,32,14.00
2009,09,23,01,33,14.00
2009,09,23,01,34,14.00
2009,09,23,01,35,14.10
2009,09,23,01,36,14.10
2009,09,23,01,37,14.10
2009,09,23,01,38,14.10
2009,09,23,01,39,14.20
2009,09,23,01,40,14.20
2009,09,23,01,41,14.20
2009,09,23,01,42,14.20
2009,09,23,01,43,14.20
2009,09,23,01,44,14.30
2009,09,23,01,45,14.30
2009,09,23,01,46,14.30
2009,09,23,01,47,14.30
2009,09,23,01,48,14.30
2009,09,23,01,49,14.30
2009,09,23,01,50,14.30
2009,09,23,01,51,14.30
2009,09,23,01,52,14.30
2009,09,23,01,53,14.30
2009,09,23,01,54,14.20
2009,09,23,01,55,14.20
2009,09,23,01,56,14.20
2009,09,23,01,57,14.20
2009,09,23,01,58,14.20
2009,09,23,01,59,14.20
2009,09,23,02,00,14.20
2009,09,23,02,01,14.20
2009,09,23,02,02,14.10
2009,09,23,02,03,14.10
2009,09,23,02,04,14.10
2009,09,23,02,05,14.00
2009,09,23,02,06,14.00
2009,09,23,02,07,13.90
2009,09,23,02,08,13.90
2009,09,23,02,09,13.90
2009,09,23,02,10,13.80
2009,09,23,02,11,13.80
2009,09,23,02,12,13.80
2009,09,23,02,13,13.80
2009,09,23,02,14,13.80
2009,09,23,02,15,13.80
2009,09,23,02,16,13.80
2009,09,23,02,17,13.80
2009,09,23,02,18,13.80
2009,09,23,02,19,13.90
2009,09,23,02,20,13.90
2009,09,23,02,21,13.90
2009,09,23,02,22,13.90
2009,09,23,02,23,13.90
2009,09,23,02,24,13.90
2009,09,23,02,25,13.90
2009,09,23,02,26,13.90
2009,09,23,02,27,13.90
2009,09,23,02,28,13.90
2009,09,23,02,29,13.90
2009,09,23,02,30,14.00
2009,09,23,02,31,14.00
2009,09,23,02,32,13.90
2009,09,23,02,33,13.90
2009,09,23,02,34,13.90
2009,09,23,02,35,13.90
2009,09,23,02,36,13.90
2009,09,23,02,37,13.80
2009,09,23,02,38,13.80
2009,09,23,02,39,13.80
2009,09,23,02,40,13.80
2009,09,23,02,41,13.70
2009,09,23,02,42,13.70
2009,09,23,02,43,13.70
2009,09,23,02,44,13.70
2009,09,23,02,45,13.70
2009,09,23,02,46,13.70
2009,09,23,02,47,13.80
2009,09,23,02,48,13.80
2009,09,23,02,49,13.80
2009,09,23,02,50,13.80
2009,09,23,02,51,13.80
2009,09,23,02,52,13.70
2009,09,23,02,53,13.70
2009,09,23,02,54,13.70
2009,09,23,02,55,13.70
2009,09,23,02,56,13.70
2009,09,23,02,57,13.70
2009,09,23,02,58,13.70
2009,09,23,02,59,13.80
2009,09,23,03,00,13.80
2009,09,23,03,01,13.80
2009,09,23,03,02,13.80
2009,09,23,03,03,13.80
2009,09,23,03,04,13.90
2009,09,23,03,05,13.90
2009,09,23,03,06,13.90
2009,09,23,03,07,13.90
2009,09,23,03,08,13.90
2009,09,23,03,09,14.00
2009,09,23,03,10,14.00
2009,09,23,03,11,14.00
2009,09,23,03,12,14.00
2009,09,23,03,13,14.00
2009,09,23,03,14,14.00
2009,09,23,03,15,14.00
2009,09,23,03,16,13.90
2009,09,23,03,17,13.90
2009,09,23,03,18,13.90
2009,09,23,03,19,13.90
2009,09,23,03,20,13.90
2009,09,23,03,21,13.90
2009,09,23,03,22,13.90
2009,09,23,03,23,13.80
2009,09,23,03,24,13.80
2009,09,23,03,25,13.80
2009,09,23,03,26,13.80
2009,09,23,03,27,13.80
2009,09,23,03,28,13.80
2009,09,23,03,29,13.80
2009,09,23,03,30,13.80
2009,09,23,03,31,13.70
2009,09,23,03,32,13.70
2009,09,23,03,33,13.70
2009,09,23,03,34,13.70
2009,09,23,03,35,13.60
2009,09,23,03,36,13.60
2009,09,23,03,37,13.60
2009,09,23,03,38,13.60
2009,09,23,03,39,13.60
2009,09,23,03,40,13.60
2009,09,23,03,41,13.60
2009,09,23,03,42,13.60
2009,09,23,03,43,13.60
2009,09,23,03,44,13.50
2009,09,23,03,45,13.50
2009,09,23,03,46,13.50
2009,09,23,03,47,13.50
2009,09,23,03,48,13.50
2009,09,23,03,49,13.50
2009,09,23,03,50,13.40
2009,09,23,03,51,13.40
2009,09,23,03,52,13.40
2009,09,23,03,53,13.40
2009,09,23,03,54,13.30
2009,09,23,03,55,13.30
2009,09,23,03,56,13.30
2009,09,23,03,57,13.30
2009,09,23,03,58,13.30
2009,09,23,03,59,13.30
2009,09,23,04,00,13.30
2009,09,23,04,01,13.20
2009,09,23,04,02,13.20
2009,09,23,04,03,13.20
2009,09,23,04,04,13.20
2009,09,23,04,05,13.20
2009,09,23,04,06,13.10
2009,09,23,04,07,13.10
2009,09,23,04,08,13.10
2009,09,23,04,09,13.10
2009,09,23,04,10,13.10
2009,09,23,04,11,13.10
2009,09,23,04,12,13.10
2009,09,23,04,13,13.10
2009,09,23,04,14,13.10
2009,09,23,04,15,13.00
2009,09,23,04,16,13.00
2009,09,23,04,17,13.00
2009,09,23,04,18,13.00
2009,09,23,04,19,13.00
2009,09,23,04,20,13.00
2009,09,23,04,21,13.00
2009,09,23,04,22,13.00
2009,09,23,04,23,13.00
2009,09,23,04,24,13.00
2009,09,23,04,25,13.00
2009,09,23,04,26,13.00
2009,09,23,04,27,13.00
2009,09,23,04,28,13.00
2009,09,23,04,29,13.00
2009,09,23,04,30,13.00
2009,09,23,04,31,12.90
2009,09,23,04,32,12.90
2009,09,23,04,33,12.90
2009,09,23,04,34,12.90
2009,09,23,04,35,12.90
2009,09,23,04,36,12.90
2009,09,23,04,37,12.80
2009,09,23,04,38,12.80
2009,09,23,04,39,12.80
2009,09,23,04,40,12.70
2009,09,23,04,41,12.70
2009,09,23,04,42,12.70
2009,09,23,04,43,12.70
2009,09,23,04,44,12.70
2009,09,23,04,45,12.60
2009,09,23,04,46,12.60
2009,09,23,04,47,12.60
2009,09,23,04,48,12.60
2009,09,23,04,49,12.60
2009,09,23,04,50,12.60
2009,09,23,04,51,12.60
2009,09,23,04,52,12.60
2009,09,23,04,53,12.60
2009,09,23,04,54,12.60
2009,09,23,04,55,12.60
2009,09,23,04,56,12.60
2009,09,23,04,57,12.60
2009,09,23,04,58,12.60
2009,09,23,04,59,12.70
2009,09,23,05,00,12.70
2009,09,23,05,01,12.70
2009,09,23,05,02,12.70
2009,09,23,05,03,12.80
2009,09,23,05,04,12.80
2009,09,23,05,05,12.80
2009,09,23,05,06,12.80
2009,09,23,05,07,12.80
2009,09,23,05,08,12.80
2009,09,23,05,09,12.80
2009,09,23,05,10,12.80
2009,09,23,05,11,12.80
2009,09,23,05,12,12.80
2009,09,23,05,13,12.90
2009,09,23,05,14,12.90
2009,09,23,05,15,12.90
2009,09,23,05,16,12.90
2009,09,23,05,17,12.90
2009,09,23,05,18,12.90
2009,09,23,05,19,12.90
2009,09,23,05,20,12.90
2009,09,23,05,21,12.90
2009,09,23,05,22,12.90
2009,09,23,05,23,12.90
2009,09,23,05,24,12.90
2009,09,23,05,25,12.90
2009,09,23,05,26,12.90
2009,09,23,05,27,12.80
2009,09,23,05,28,12.80
2009,09,23,05,29,12.80
2009,09,23,05,30,12.80
2009,09,23,05,31,12.80
2009,09,23,05,32,12.80
2009,09,23,05,33,12.80
2009,09,23,05,34,12.80
2009,09,23,05,35,12.80
2009,09,23,05,36,12.80
2009,09,23,05,37,12.80
2009,09,23,05,38,12.80
2009,09,23,05,39,12.80
2009,09,23,05,40,12.80
2009,09,23,05,41,12.80
2009,09,23,05,42,12.80
2009,09,23,05,43,12.80
2009,09,23,05,44,12.80
2009,09,23,05,45,12.80
2009,09,23,05,46,12.80
2009,09,23,05,47,12.90
2009,09,23,05,48,12.90
2009,09,23,05,49,12.90
2009,09,23,05,50,12.90
2009,09,23,05,51,13.00
2009,09,23,05,52,13.00
2009,09,23,05,53,13.10
2009,09,23,05,54,13.10
2009,09,23,05,55,13.10
2009,09,23,05,56,13.10
2009,09,23,05,57,13.10
2009,09,23,05,58,13.20
2009,09,23,05,59,13.20
2009,09,23,06,00,13.20
2009,09,23,06,01,13.20
2009,09,23,06,02,13.20
2009,09,23,06,03,13.20
2009,09,23,06,04,13.20
2009,09,23,06,05,13.20
2009,09,23,06,06,13.10
2009,09,23,06,07,13.10
2009,09,23,06,08,13.10
2009,09,23,06,09,13.10
2009,09,23,06,10,13.10
2009,09,23,06,11,13.10
2009,09,23,06,12,13.00
2009,09,23,06,13,13.00
2009,09,23,06,14,12.90
2009,09,23,06,15,12.90
2009,09,23,06,16,12.90
2009,09,23,06,17,12.80
2009,09,23,06,18,12.80
2009,09,23,06,19,12.70
2009,09,23,06,20,12.70
2009,09,23,06,21,12.70
2009,09,23,06,22,12.70
2009,09,23,06,23,12.60
2009,09,23,06,24,12.60
2009,09,23,06,25,12.60
2009,09,23,06,26,12.60
2009,09,23,06,27,12.60
2009,09,23,06,28,12.60
2009,09,23,06,29,12.50
2009,09,23,06,30,12.50
2009,09,23,06,31,12.50
2009,09,23,06,32,12.50
2009,09,23,06,33,12.60
2009,09,23,06,34,12.60
2009,09,23,06,35,12.60
2009,09,23,06,36,12.70
2009,09,23,06,37,12.70
2009,09,23,06,38,12.80
2009,09,23,06,39,12.80
2009,09,23,06,40,12.80
2009,09,23,06,41,12.80
2009,09,23,06,42,12.80
2009,09,23,06,43,12.80
2009,09,23,06,44,12.80
2009,09,23,06,45,12.80
2009,09,23,06,46,12.70
2009,09,23,06,47,12.70
2009,09,23,06,48,12.70
2009,09,23,06,49,12.70
2009,09,23,06,50,12.60
2009,09,23,06,51,12.60
2009,09,23,06,52,12.60
2009,09,23,06,53,12.60
2009,09,23,06,54,12.50
2009,09,23,06,55,12.50
2009,09,23,06,56,12.50
2009,09,23,06,57,12.40
2009,09,23,06,58,12.40
2009,09,23,06,59,12.40
2009,09,23,07,00,12.40
2009,09,23,07,01,12.40
2009,09,23,07,02,12.40
2009,09,23,07,03,12.40
2009,09,23,07,04,12.40
2009,09,23,07,05,12.30
2009,09,23,07,06,12.30
2009,09,23,07,07,12.30
2009,09,23,07,08,12.30
2009,09,23,07,09,12.30
2009,09,23,07,10,12.30
2009,09,23,07,11,12.30
2009,09,23,07,12,12.30
2009,09,23,07,13,12.30
2009,09,23,07,14,12.30
2009,09,23,07,15,12.30
2009,09,23,07,16,12.30
2009,09,23,07,17,12.30
2009,09,23,07,18,12.30
2009,09,23,07,19,12.30
2009,09,23,07,20,12.30
2009,09,23,07,21,12.30
2009,09,23,07,22,12.30
2009,09,23,07,23,12.40
2009,09,23,07,24,12.40
2009,09,23,07,25,12.40
2009,09,23,07,26,12.50
2009,09,23,07,27,12.50
2009,09,23,07,28,12.60
2009,09,23,07,29,12.60
2009,09,23,07,30,12.60
2009,09,23,07,31,12.60
2009,09,23,07,32,12.70
2009,09,23,07,33,12.70
2009,09,23,07,34,12.70
2009,09,23,07,35,12.70
2009,09,23,07,36,12.70
2009,09,23,07,37,12.70
2009,09,23,07,38,12.70
2009,09,23,07,39,12.80
2009,09,23,07,40,12.80
2009,09,23,07,41,12.80
2009,09,23,07,42,12.80
2009,09,23,07,43,12.80
2009,09,23,07,44,12.90
2009,09,23,07,45,13.00
2009,09,23,07,46,13.00
2009,09,23,07,47,13.10
2009,09,23,07,48,13.10
2009,09,23,07,49,13.20
2009,09,23,07,50,13.20
2009,09,23,07,51,13.30
2009,09,23,07,52,13.30
2009,09,23,07,53,13.30
2009,09,23,07,54,13.40
2009,09,23,07,55,13.40
2009,09,23,07,56,13.40
2009,09,23,07,57,13.40
2009,09,23,07,58,13.40
2009,09,23,07,59,13.40
2009,09,23,08,00,13.40
2009,09,23,08,01,13.40
2009,09,23,08,02,13.40
2009,09,23,08,03,13.40
2009,09,23,08,04,13.40
2009,09,23,08,05,13.40
2009,09,23,08,06,13.40
2009,09,23,08,07,13.40
2009,09,23,08,08,13.40
2009,09,23,08,09,13.40
2009,09,23,08,10,13.50
2009,09,23,08,11,13.50
2009,09,23,08,12,13.50
2009,09,23,08,13,13.50
2009,09,23,08,14,13.60
2009,09,23,08,15,13.60
2009,09,23,08,16,13.60
2009,09,23,08,17,13.60
2009,09,23,08,18,13.60
2009,09,23,08,19,13.70
2009,09,23,08,20,13.70
2009,09,23,08,21,13.70
2009,09,23,08,22,13.70
2009,09,23,08,23,13.80
2009,09,23,08,24,13.80
2009,09,23,08,25,13.80
2009,09,23,08,26,13.80
2009,09,23,08,27,13.80
2009,09,23,08,28,13.90
2009,09,23,08,29,13.90
2009,09,23,08,30,14.00
2009,09,23,08,31,14.00
2009,09,23,08,32,14.10
2009,09,23,08,33,14.10
2009,09,23,08,34,14.10
2009,09,23,08,35,14.10
2009,09,23,08,36,14.20
2009,09,23,08,37,14.20
2009,09,23,08,38,14.20
2009,09,23,08,39,14.20
2009,09,23,08,40,14.30
2009,09,23,08,41,14.30
2009,09,23,08,42,14.30
2009,09,23,08,43,14.40
2009,09,23,08,44,14.40
2009,09,23,08,45,14.50
2009,09,23,08,46,14.60
2009,09,23,08,47,14.60
2009,09,23,08,48,14.70
2009,09,23,08,49,14.70
2009,09,23,08,50,14.80
2009,09,23,08,51,14.80
2009,09,23,08,52,14.90
2009,09,23,08,53,15.00
2009,09,23,08,54,15.00
2009,09,23,08,55,15.00
2009,09,23,08,56,15.00
2009,09,23,08,57,15.00
2009,09,23,08,58,15.00
2009,09,23,08,59,15.00
2009,09,23,09,00,15.10
2009,09,23,09,01,15.10
2009,09,23,09,02,15.20
2009,09,23,09,03,15.20
2009,09,23,09,04,15.30
2009,09,23,09,05,15.30
2009,09,23,09,06,15.30
2009,09,23,09,07,15.40
2009,09,23,09,08,15.40
2009,09,23,09,09,15.50
2009,09,23,09,10,15.60
2009,09,23,09,11,15.60
2009,09,23,09,12,15.60
2009,09,23,09,13,15.70
2009,09,23,09,14,15.70
2009,09,23,09,15,15.70
2009,09,23,09,16,15.70
2009,09,23,09,17,15.70
2009,09,23,09,18,15.70
2009,09,23,09,19,15.80
2009,09,23,09,20,15.80
2009,09,23,09,21,15.80
2009,09,23,09,22,15.90
2009,09,23,09,23,16.00
2009,09,23,09,24,16.00
2009,09,23,09,25,16.10
2009,09,23,09,26,16.20
2009,09,23,09,27,16.20
2009,09,23,09,28,16.30
2009,09,23,09,29,16.30
2009,09,23,09,30,16.40
2009,09,23,09,31,16.40
2009,09,23,09,32,16.50
2009,09,23,09,33,16.60
2009,09,23,09,34,16.60
2009,09,23,09,35,16.70
2009,09,23,09,36,16.70
2009,09,23,09,37,16.70
2009,09,23,09,38,16.80
2009,09,23,09,39,16.80
2009,09,23,09,40,16.80
2009,09,23,09,41,16.80
2009,09,23,09,42,16.80
2009,09,23,09,43,16.90
2009,09,23,09,44,16.90
2009,09,23,09,45,17.00
2009,09,23,09,46,17.10
2009,09,23,09,47,17.10
2009,09,23,09,48,17.20
2009,09,23,09,49,17.30
2009,09,23,09,50,17.30
2009,09,23,09,51,17.40
2009,09,23,09,52,17.40
2009,09,23,09,53,17.50
2009,09,23,09,54,17.60
2009,09,23,09,55,17.60
2009,09,23,09,56,17.70
2009,09,23,09,57,17.70
2009,09,23,09,58,17.70
2009,09,23,09,59,17.70
2009,09,23,10,00,17.80
2009,09,23,10,01,17.80
2009,09,23,10,02,17.70
2009,09,23,10,03,17.70
2009,09,23,10,04,17.70
2009,09,23,10,05,17.70
2009,09,23,10,06,17.70
2009,09,23,10,07,17.80
2009,09,23,10,08,17.80
2009,09,23,10,09,17.80
2009,09,23,10,10,17.90
2009,09,23,10,11,17.90
2009,09,23,10,12,18.00
2009,09,23,10,13,18.00
2009,09,23,10,14,18.10
2009,09,23,10,15,18.10
2009,09,23,10,16,18.20
2009,09,23,10,17,18.20
2009,09,23,10,18,18.20
2009,09,23,10,19,18.20
2009,09,23,10,20,18.30
2009,09,23,10,21,18.30
2009,09,23,10,22,18.40
2009,09,23,10,23,18.50
2009,09,23,10,24,18.50
2009,09,23,10,25,18.60
2009,09,23,10,26,18.60
2009,09,23,10,27,18.70
2009,09,23,10,28,18.70
2009,09,23,10,29,18.80
2009,09,23,10,30,18.80
2009,09,23,10,31,18.80
2009,09,23,10,32,18.80
2009,09,23,10,33,18.90
2009,09,23,10,34,18.90
2009,09,23,10,35,19.00
2009,09,23,10,36,19.00
2009,09,23,10,37,19.10
2009,09,23,10,38,19.10
2009,09,23,10,39,19.10
2009,09,23,10,40,19.20
2009,09,23,10,41,19.20
2009,09,23,10,42,19.20
2009,09,23,10,43,19.20
2009,09,23,10,44,19.20
2009,09,23,10,45,19.20
2009,09,23,10,46,19.30
2009,09,23,10,47,19.30
2009,09,23,10,48,19.40
2009,09,23,10,49,19.60
2009,09,23,10,50,19.70
2009,09,23,10,51,19.80
2009,09,23,10,52,19.90
2009,09,23,10,53,20.00
2009,09,23,10,54,20.10
2009,09,23,10,55,20.30
2009,09,23,10,56,20.40
2009,09,23,10,57,20.60
2009,09,23,10,58,20.70
2009,09,23,10,59,20.80
2009,09,23,11,00,20.80
2009,09,23,11,01,20.80
2009,09,23,11,02,20.80
2009,09,23,11,03,20.70
2009,09,23,11,04,20.70
2009,09,23,11,05,20.60
2009,09,23,11,06,20.50
2009,09,23,11,07,20.40
2009,09,23,11,08,20.20
2009,09,23,11,09,20.10
2009,09,23,11,10,19.90
2009,09,23,11,11,19.80
2009,09,23,11,12,19.60
2009,09,23,11,13,19.50
2009,09,23,11,14,19.50
2009,09,23,11,15,19.40
2009,09,23,11,16,19.40
2009,09,23,11,17,19.40
2009,09,23,11,18,19.40
2009,09,23,11,19,19.50
2009,09,23,11,20,19.50
2009,09,23,11,21,19.40
2009,09,23,11,22,19.30
2009,09,23,11,23,19.30
2009,09,23,11,24,19.30
2009,09,23,11,25,19.40
2009,09,23,11,26,19.40
2009,09,23,11,27,19.40
2009,09,23,11,28,19.40
2009,09,23,11,29,19.40
2009,09,23,11,30,19.50
2009,09,23,11,31,19.50
2009,09,23,11,32,19.50
2009,09,23,11,33,19.60
2009,09,23,11,34,19.60
2009,09,23,11,35,19.60
2009,09,23,11,36,19.60
2009,09,23,11,37,19.60
2009,09,23,11,38,19.60
2009,09,23,11,39,19.60
2009,09,23,11,40,19.60
2009,09,23,11,41,19.50
2009,09,23,11,42,19.50
2009,09,23,11,43,19.50
2009,09,23,11,44,19.60
2009,09,23,11,45,19.70
2009,09,23,11,46,19.70
2009,09,23,11,47,19.70
2009,09,23,11,48,19.70
2009,09,23,11,49,19.50
2009,09,23,11,50,19.30
2009,09,23,11,51,19.10
2009,09,23,11,52,19.00
2009,09,23,11,53,18.90
2009,09,23,11,54,18.80
2009,09,23,11,55,18.80
2009,09,23,11,56,18.80
2009,09,23,11,57,18.80
2009,09,23,11,58,18.80
2009,09,23,11,59,18.80
2009,09,23,12,00,18.80
2009,09,23,12,01,18.80
2009,09,23,12,02,18.80
2009,09,23,12,03,18.70
2009,09,23,12,04,18.70
2009,09,23,12,05,18.70
2009,09,23,12,06,18.70
2009,09,23,12,07,18.60
2009,09,23,12,08,18.60
2009,09,23,12,09,18.60
2009,09,23,12,10,18.60
2009,09,23,12,11,18.60
2009,09,23,12,12,18.60
2009,09,23,12,13,18.60
2009,09,23,12,14,18.60
2009,09,23,12,15,18.70
2009,09,23,12,16,18.70
2009,09,23,12,17,18.70
2009,09,23,12,18,18.80
2009,09,23,12,19,18.90
2009,09,23,12,20,18.90
2009,09,23,12,21,18.90
2009,09,23,12,22,18.80
2009,09,23,12,23,18.70
2009,09,23,12,24,18.70
2009,09,23,12,25,18.60
2009,09,23,12,26,18.60
2009,09,23,12,27,18.60
2009,09,23,12,28,18.60
2009,09,23,12,29,18.60
2009,09,23,12,30,18.70
2009,09,23,12,31,18.70
2009,09,23,12,32,18.80
2009,09,23,12,33,18.90
2009,09,23,12,34,19.10
2009,09,23,12,35,19.20
2009,09,23,12,36,19.30
2009,09,23,12,37,19.40
2009,09,23,12,38,19.50
2009,09,23,12,39,19.60
2009,09,23,12,40,19.70
2009,09,23,12,41,19.80
2009,09,23,12,42,19.90
2009,09,23,12,43,19.90
2009,09,23,12,44,19.90
2009,09,23,12,45,19.80
2009,09,23,12,46,19.70
2009,09,23,12,47,19.60
2009,09,23,12,48,19.60
2009,09,23,12,49,19.60
2009,09,23,12,50,19.50
2009,09,23,12,51,19.50
2009,09,23,12,52,19.60
2009,09,23,12,53,19.70
2009,09,23,12,54,19.80
2009,09,23,12,55,19.90
2009,09,23,12,56,20.00
2009,09,23,12,57,20.10
2009,09,23,12,58,20.10
2009,09,23,12,59,20.20
2009,09,23,13,00,20.20
2009,09,23,13,01,20.30
2009,09,23,13,02,20.30
2009,09,23,13,03,20.30
2009,09,23,13,04,20.30
2009,09,23,13,05,20.30
2009,09,23,13,06,20.20
2009,09,23,13,07,20.20
2009,09,23,13,08,20.20
2009,09,23,13,09,20.30
2009,09,23,13,10,20.30
2009,09,23,13,11,20.20
2009,09,23,13,12,20.10
2009,09,23,13,13,20.00
2009,09,23,13,14,19.90
2009,09,23,13,15,19.90
2009,09,23,13,16,19.80
2009,09,23,13,17,19.80
2009,09,23,13,18,19.80
2009,09,23,13,19,19.80
2009,09,23,13,20,19.80
2009,09,23,13,21,19.70
2009,09,23,13,22,19.70
2009,09,23,13,23,19.80
2009,09,23,13,24,19.90
2009,09,23,13,25,19.90
2009,09,23,13,26,19.90
2009,09,23,13,27,19.70
2009,09,23,13,28,19.50
2009,09,23,13,29,19.50
2009,09,23,13,30,19.40
2009,09,23,13,31,19.30
2009,09,23,13,32,19.30
2009,09,23,13,33,19.40
2009,09,23,13,34,19.50
2009,09,23,13,35,19.70
2009,09,23,13,36,19.90
2009,09,23,13,37,20.00
2009,09,23,13,38,20.00
2009,09,23,13,39,20.00
2009,09,23,13,40,19.90
2009,09,23,13,41,19.80
2009,09,23,13,42,19.80
2009,09,23,13,43,19.70
2009,09,23,13,44,19.70
2009,09,23,13,45,19.70
2009,09,23,13,46,19.70
2009,09,23,13,47,19.70
2009,09,23,13,48,19.70
2009,09,23,13,49,19.70
2009,09,23,13,50,19.70
2009,09,23,13,51,19.60
2009,09,23,13,52,19.50
2009,09,23,13,53,19.40
2009,09,23,13,54,19.40
2009,09,23,13,55,19.50
2009,09,23,13,56,19.50
2009,09,23,13,57,19.50
2009,09,23,13,58,19.50
2009,09,23,13,59,19.50
2009,09,23,14,00,19.50
2009,09,23,14,01,19.40
2009,09,23,14,02,19.30
2009,09,23,14,03,19.20
2009,09,23,14,04,19.20
2009,09,23,14,05,19.10
2009,09,23,14,06,18.90
2009,09,23,14,07,18.80
2009,09,23,14,08,18.70
2009,09,23,14,09,18.70
2009,09,23,14,10,18.60
2009,09,23,14,11,18.60
2009,09,23,14,12,18.60
2009,09,23,14,13,18.60
2009,09,23,14,14,18.50
2009,09,23,14,15,18.50
2009,09,23,14,16,18.50
2009,09,23,14,17,18.50
2009,09,23,14,18,18.50
2009,09,23,14,19,18.60
2009,09,23,14,20,18.60
2009,09,23,14,21,18.60
2009,09,23,14,22,18.50
2009,09,23,14,23,18.50
2009,09,23,14,24,18.50
2009,09,23,14,25,18.50
2009,09,23,14,26,18.40
2009,09,23,14,27,18.30
2009,09,23,14,28,18.20
2009,09,23,14,29,18.10
2009,09,23,14,30,18.10
2009,09,23,14,31,18.10
2009,09,23,14,32,18.10
2009,09,23,14,33,18.20
2009,09,23,14,34,18.20
2009,09,23,14,35,18.20
2009,09,23,14,36,18.10
2009,09,23,14,37,18.10
2009,09,23,14,38,18.20
2009,09,23,14,39,18.20
2009,09,23,14,40,18.20
2009,09,23,14,41,18.20
2009,09,23,14,42,18.20
2009,09,23,14,43,18.20
2009,09,23,14,44,18.20
2009,09,23,14,45,18.20
2009,09,23,14,46,18.30
2009,09,23,14,47,18.30
2009,09,23,14,48,18.30
2009,09,23,14,49,18.30
2009,09,23,14,50,18.30
2009,09,23,14,51,18.20
2009,09,23,14,52,18.10
2009,09,23,14,53,18.10
2009,09,23,14,54,18.10
2009,09,23,14,55,18.10
2009,09,23,14,56,18.10
2009,09,23,14,57,18.10
2009,09,23,14,58,18.00
2009,09,23,14,59,17.90
2009,09,23,15,00,17.70
2009,09,23,15,01,17.50
2009,09,23,15,02,17.40
2009,09,23,15,03,17.30
2009,09,23,15,04,17.30
2009,09,23,15,05,17.40
2009,09,23,15,06,17.40
2009,09,23,15,07,17.40
2009,09,23,15,08,17.40
2009,09,23,15,09,17.40
2009,09,23,15,10,17.30
2009,09,23,15,11,17.40
2009,09,23,15,12,17.50
2009,09,23,15,13,17.50
2009,09,23,15,14,17.60
2009,09,23,15,15,17.60
2009,09,23,15,16,17.60
2009,09,23,15,17,17.60
2009,09,23,15,18,17.60
2009,09,23,15,19,17.60
2009,09,23,15,20,17.50
2009,09,23,15,21,17.40
2009,09,23,15,22,17.20
2009,09,23,15,23,17.10
2009,09,23,15,24,17.10
2009,09,23,15,25,17.10
2009,09,23,15,26,17.10
2009,09,23,15,27,17.10
2009,09,23,15,28,17.10
2009,09,23,15,29,17.20
2009,09,23,15,30,17.20
2009,09,23,15,31,17.20
2009,09,23,15,32,17.20
2009,09,23,15,33,17.20
2009,09,23,15,34,17.30
2009,09,23,15,35,17.30
2009,09,23,15,36,17.30
2009,09,23,15,37,17.20
2009,09,23,15,38,17.20
2009,09,23,15,39,17.20
2009,09,23,15,40,17.20
2009,09,23,15,41,17.20
2009,09,23,15,42,17.10
2009,09,23,15,43,17.00
2009,09,23,15,44,17.00
2009,09,23,15,45,17.10
2009,09,23,15,46,17.10
2009,09,23,15,47,17.20
2009,09,23,15,48,17.20
2009,09,23,15,49,17.30
2009,09,23,15,50,17.20
2009,09,23,15,51,17.30
2009,09,23,15,52,17.30
2009,09,23,15,53,17.30
2009,09,23,15,54,17.30
2009,09,23,15,55,17.30
2009,09,23,15,56,17.30
2009,09,23,15,57,17.20
2009,09,23,15,58,17.10
2009,09,23,15,59,17.10
2009,09,23,16,00,17.00
2009,09,23,16,01,16.90
2009,09,23,16,02,16.70
2009,09,23,16,03,16.70
2009,09,23,16,04,16.60
2009,09,23,16,05,16.60
2009,09,23,16,06,16.60
2009,09,23,16,07,16.50
2009,09,23,16,08,16.40
2009,09,23,16,09,16.40
2009,09,23,16,10,16.40
2009,09,23,16,11,16.40
2009,09,23,16,12,16.40
2009,09,23,16,13,16.50
2009,09,23,16,14,16.60
2009,09,23,16,15,16.70
2009,09,23,16,16,16.80
2009,09,23,16,17,16.70
2009,09,23,16,18,16.70
2009,09,23,16,19,16.70
2009,09,23,16,20,16.70
2009,09,23,16,21,16.70
2009,09,23,16,22,16.70
2009,09,23,16,23,16.80
2009,09,23,16,24,16.80
2009,09,23,16,25,16.80
2009,09,23,16,26,16.80
2009,09,23,16,27,16.80
2009,09,23,16,28,16.90
2009,09,23,16,29,16.90
2009,09,23,16,30,16.80
2009,09,23,16,31,16.80
2009,09,23,16,32,16.80
2009,09,23,16,33,16.80
2009,09,23,16,34,16.80
2009,09,23,16,35,16.70
2009,09,23,16,36,16.70
2009,09,23,16,37,16.70
2009,09,23,16,38,16.70
2009,09,23,16,39,16.70
2009,09,23,16,40,16.80
2009,09,23,16,41,16.80
2009,09,23,16,42,16.90
2009,09,23,16,43,16.90
2009,09,23,16,44,17.00
2009,09,23,16,45,17.00
2009,09,23,16,46,17.10
2009,09,23,16,47,17.10
2009,09,23,16,48,17.10
2009,09,23,16,49,17.20
2009,09,23,16,50,17.30
2009,09,23,16,51,17.40
2009,09,23,16,52,17.40
2009,09,23,16,53,17.50
2009,09,23,16,54,17.60
2009,09,23,16,55,17.70
2009,09,23,16,56,17.80
2009,09,23,16,57,17.90
2009,09,23,16,58,17.90
2009,09,23,16,59,17.80
2009,09,23,17,00,17.70
2009,09,23,17,01,17.60
2009,09,23,17,02,17.40
2009,09,23,17,03,17.20
2009,09,23,17,04,17.20
2009,09,23,17,05,17.10
2009,09,23,17,06,17.10
2009,09,23,17,07,17.10
2009,09,23,17,08,17.10
2009,09,23,17,09,17.10
2009,09,23,17,10,17.10
2009,09,23,17,11,17.10
2009,09,23,17,12,17.10
2009,09,23,17,13,17.00
2009,09,23,17,14,17.00
2009,09,23,17,15,16.90
2009,09,23,17,16,16.90
2009,09,23,17,17,16.90
2009,09,23,17,18,16.90
2009,09,23,17,19,17.00